Retour au catalogue

FENGYUN 1C DEB

ActifSSO
NORAD 31371·DEBRIS·🇨🇳 China

Lancé May 10, 1999 depuis Taiyuan Satellite Launch Center

Loading…

Prochains Passages (prochaines 24 heures)

TLE

FraisSource: Space-Track

Époque: Sep 13, 2026, 08:14 UTC

1 31371U 99025BSB 26256.34331311  .00000594  00000-0  38384-3 0  9997
2 31371  98.7428 284.6395 0077691 195.4104 164.4698 14.05099059996022

Suivez FENGYUN 1C DEB en temps réel avec AllMySat

Download on the App Store